Location: Unspecified
(0.0000°N, 0.0000°E)
Time: 15:47:13
(UTC+00:00)

Vanguard 1 Rocket - Pass Details

Date: 17 December 2017
Orbit: 652 x 4225 km, 34.3° (Epoch: 16 July)

Event Time Altitude Azimuth Distance (km) Brightness Sun altitude
Rises 22:50:45 0° 313° (NW) 7,156 11.9 -61.7°
Reaches altitude 10° 22:55:01 10° 315° (NW) 6,486 11.6 -62.3°
Enters shadow 22:55:56 12° 316° (NW) 6,349 11.5 -62.4°
Maximum altitude 23:19:07 72° 39° (NE) 4,350 - -64.9°
Exits shadow 23:34:45 32° 114° (ESE) 5,366 11.1 -66.0°
Drops below altitude 10° 23:43:10 10° 120° (ESE) 6,523 11.8 -66.4°
Sets 23:47:25 0° 121° (ESE) 7,202 12.1 -66.5°
